Weather History for Fallon NAS, NV

Change the Weather History Date:

Wednesday, August 28, 2013

  Actual Average Record
Temperature  
Mean Temperature 78 °F -  
Max Temperature 91 °F 87 °F 100 °F (1998)
Min Temperature 64 °F 49 °F 37 °F (1991)
Cooling Degree Days 12    
Growing Degree Days 28 (Base 50)    
Moisture  
Dew Point 50 °F    
Average Humidity 43    
Maximum Humidity 73    
Minimum Humidity 18    
Precipitation  
Precipitation 0.00 in - - ()
Sea Level Pressure  
Sea Level Pressure 29.91 in    
Wind  
Wind Speed 8 mph (SW)    
Max Wind Speed 15 mph    
Max Gust Speed -    
Visibility 7 miles    
Events      
Averages and records for this station are not official NWS values.
T = Trace of Precipitation, MM = Missing Value Source: NWS Daily Summary

Daily Weather History Graph

Daily Weather History Graph

Search for Another Location

Airport:

Trip Planner

Search our weather history database for the weather conditions in past years. The results will help you decide how hot, cold, wet, or windy it might be!

Date:

Astronomy

Aug. 28, 2013 Rise Set
Actual Time 6:19 AM PDT 7:31 PM PDT
Civil Twilight 5:52 AM PDT 7:58 PM PDT
Nautical Twilight 5:18 AM PDT 8:32 PM PDT
Astronomical Twilight 4:44 AM PDT 9:06 PM PDT
Moon No Moon Rise 2:12 PM PDT (8/28)
Length of Visible Light 14h 06m
Length of Day
13h 11m
Last Quarter, 46% of the Moon is Illuminated
Aug 28
Last Quarter
Sep 5
New
Sep 12
First Quarter
Sep 19
Full
Sep 26
Last Quarter

Hourly Weather History & Observations

Time (PDT) Temp. Heat Index Dew Point Humidity Pressure Visibility Wind Dir Wind Speed Gust Speed Precip Events Conditions
12:56 AM 66.9 °F - 55.9 °F 68% 29.88 in 10.0 mi SE 9.2 mph - N/A   Overcast
1:56 AM 66.0 °F - 55.9 °F 70% 29.88 in 10.0 mi SSE 10.4 mph - N/A   Overcast
2:56 AM 66.9 °F - 55.9 °F 68% 29.88 in 10.0 mi SE 15.0 mph - N/A   Overcast
3:56 AM 66.0 °F - 55.0 °F 68% 29.88 in 10.0 mi SE 10.4 mph - N/A   Overcast
4:56 AM 66.0 °F - 55.9 °F 70% 29.89 in 10.0 mi South 5.8 mph - N/A   Overcast
5:56 AM 64.9 °F - 55.9 °F 73% 29.90 in 10.0 mi SSE 9.2 mph - N/A   Overcast
6:15 AM 66.2 °F - 55.4 °F 68% 29.99 in 7.0 mi SSE 10.4 mph - N/A   Overcast
6:56 AM 64.0 °F - 55.0 °F 73% 29.92 in 7.0 mi SE 5.8 mph - N/A   Mostly Cloudy
7:56 AM 64.9 °F - 55.9 °F 73% 29.93 in 7.0 mi SSE 5.8 mph - N/A   Mostly Cloudy
8:56 AM 69.8 °F - 57.2 °F 64% 29.94 in 6.0 mi West 3.5 mph - N/A   Smoke
9:56 AM 75.2 °F - 55.4 °F 50% 29.94 in 6.0 mi SE 8.1 mph - N/A   Smoke
10:56 AM 80.1 °F 80.2 °F 55.9 °F 43% 29.94 in 7.0 mi ESE 5.8 mph - N/A   Scattered Clouds
11:56 AM 82.0 °F 81.6 °F 55.9 °F 41% 29.93 in 10.0 mi Calm Calm - N/A   Scattered Clouds
12:56 PM 87.1 °F 85.3 °F 55.0 °F 33% 29.91 in 10.0 mi NNE 8.1 mph - N/A   Scattered Clouds
1:56 PM 89.1 °F - 50.0 °F 26% 29.89 in 10.0 mi Variable 4.6 mph - N/A   Scattered Clouds
2:56 PM 88.0 °F - 48.9 °F 26% 29.87 in 10.0 mi Calm Calm - N/A   Scattered Clouds
3:56 PM 91.0 °F - 46.0 °F 21% 29.85 in 10.0 mi West 5.8 mph - N/A   Scattered Clouds
4:56 PM 91.9 °F - 42.1 °F 18% 29.84 in 10.0 mi NNW 3.5 mph - N/A   Scattered Clouds
5:56 PM 91.0 °F - 42.1 °F 18% 29.84 in 10.0 mi WNW 8.1 mph - N/A   Scattered Clouds
6:56 PM 87.1 °F - 45.0 °F 23% 29.85 in 6.0 mi West 12.7 mph - N/A   Smoke
7:08 PM 86.0 °F - 46.4 °F 25% 29.93 in 3.0 mi West 11.5 mph - N/A   Smoke
7:15 PM 84.2 °F - 46.4 °F 27% 29.93 in 2.5 mi West 11.5 mph - N/A   Smoke
7:46 PM 82.4 °F - 44.6 °F 26% 29.94 in 1.5 mi West 12.7 mph - N/A   Smoke
7:56 PM 82.4 °F - 44.6 °F 26% 29.87 in 1.5 mi West 10.4 mph - N/A   Smoke
8:03 PM 82.4 °F - 44.6 °F 26% 29.95 in 1.0 mi West 10.4 mph - N/A   Smoke
8:56 PM 78.8 °F - 44.6 °F 30% 29.90 in 1.0 mi WNW 8.1 mph - N/A   Smoke
9:07 PM 78.8 °F - 44.6 °F 30% 29.98 in 2.0 mi WNW 6.9 mph - N/A   Smoke
9:29 PM 77.0 °F - 44.6 °F 32% 30.00 in 4.0 mi WNW 6.9 mph - N/A   Smoke
9:56 PM 77.0 °F - 44.6 °F 32% 29.91 in 4.0 mi WNW 8.1 mph - N/A   Smoke
10:56 PM 75.0 °F - 43.0 °F 32% 29.93 in 4.0 mi Calm Calm - N/A   Haze
11:56 PM 70.0 °F - 46.0 °F 42% 29.94 in 4.0 mi SSE 4.6 mph - N/A   Haze